TimeEDT,TemperatureF,Dew PointF,Humidity,Sea Level PressureIn,VisibilityMPH,Wind Direction,Wind SpeedMPH,Gust SpeedMPH,PrecipitationIn,Events,Conditions,WindDirDegrees,DateUTC
12:10 AM,35.6,26.6,70,29.80,10.0,WNW,6.9,-,0.00,,Clear,300,2012-11-02 04:10:00
12:30 AM,37.4,24.8,60,29.80,10.0,WNW,8.1,-,0.00,,Clear,300,2012-11-02 04:30:00
12:50 AM,35.6,26.6,70,29.81,10.0,WNW,5.8,-,0.00,,Partly Cloudy,290,2012-11-02 04:50:00
1:10 AM,37.4,26.6,65,29.81,10.0,WNW,6.9,-,0.00,,Mostly Cloudy,300,2012-11-02 05:10:00
1:30 AM,35.6,26.6,70,29.81,10.0,WNW,5.8,-,0.00,,Mostly Cloudy,290,2012-11-02 05:30:00
1:50 AM,35.6,26.6,70,29.80,10.0,NNW,6.9,-,0.00,,Scattered Clouds,330,2012-11-02 05:50:00
2:10 AM,35.6,28.4,75,29.80,10.0,NNW,8.1,-,0.00,,Mostly Cloudy,330,2012-11-02 06:10:00
2:30 AM,37.4,28.4,70,29.79,10.0,North,11.5,-,0.00,,Mostly Cloudy,360,2012-11-02 06:30:00
2:50 AM,37.4,28.4,70,29.80,10.0,NNW,9.2,-,0.00,,Overcast,330,2012-11-02 06:50:00
3:10 AM,37.4,28.4,70,29.81,10.0,NW,6.9,-,0.00,,Overcast,310,2012-11-02 07:10:00
3:30 AM,37.4,28.4,70,29.80,10.0,NNW,4.6,-,0.00,,Overcast,340,2012-11-02 07:30:00
3:50 AM,37.4,28.4,70,29.80,10.0,WNW,3.5,-,0.00,,Overcast,300,2012-11-02 07:50:00
4:10 AM,35.6,28.4,75,29.82,10.0,WNW,5.8,-,0.00,,Overcast,290,2012-11-02 08:10:00
4:30 AM,37.4,28.4,70,29.82,10.0,NW,4.6,-,0.00,,Overcast,310,2012-11-02 08:30:00
4:50 AM,35.6,28.4,75,29.82,10.0,WNW,4.6,-,0.00,,Overcast,290,2012-11-02 08:50:00
5:10 AM,35.6,28.4,75,29.83,10.0,WNW,5.8,-,0.00,,Overcast,290,2012-11-02 09:10:00
5:30 AM,35.6,30.2,81,29.83,10.0,WNW,5.8,-,0.00,,Overcast,300,2012-11-02 09:30:00
5:50 AM,35.6,30.2,81,29.83,10.0,West,4.6,-,0.00,,Mostly Cloudy,280,2012-11-02 09:50:00
6:10 AM,35.6,30.2,81,29.84,10.0,WNW,4.6,-,0.00,,Mostly Cloudy,290,2012-11-02 10:10:00
6:30 AM,35.6,30.2,81,29.84,10.0,West,4.6,-,0.00,,Mostly Cloudy,270,2012-11-02 10:30:00
6:50 AM,35.6,30.2,81,29.84,10.0,WNW,4.6,-,0.00,,Overcast,290,2012-11-02 10:50:00
7:10 AM,35.6,30.2,81,29.85,10.0,WNW,8.1,-,0.00,,Overcast,300,2012-11-02 11:10:00
7:30 AM,33.8,28.4,81,29.86,10.0,NW,8.1,-,0.00,,Scattered Clouds,310,2012-11-02 11:30:00
7:50 AM,33.8,28.4,81,29.86,10.0,WNW,6.9,-,0.00,,Clear,300,2012-11-02 11:50:00
8:10 AM,32.0,28.4,87,29.87,10.0,WNW,5.8,-,0.00,,Clear,290,2012-11-02 12:10:00
8:30 AM,33.8,30.2,87,29.88,10.0,NW,8.1,-,0.00,,Clear,310,2012-11-02 12:30:00
8:50 AM,35.6,30.2,81,29.88,10.0,NW,6.9,-,0.00,,Clear,310,2012-11-02 12:50:00
9:10 AM,35.6,30.2,81,29.90,10.0,NW,6.9,-,0.00,,Partly Cloudy,310,2012-11-02 13:10:00
9:30 AM,35.6,30.2,81,29.90,10.0,WNW,8.1,-,0.00,,Clear,300,2012-11-02 13:30:00
9:50 AM,37.4,30.2,75,29.91,10.0,NW,10.4,-,0.00,,Clear,310,2012-11-02 13:50:00
10:10 AM,39.2,30.2,70,29.92,10.0,NW,13.8,19.6,0.00,,Clear,310,2012-11-02 14:10:00
10:30 AM,39.2,30.2,70,29.93,10.0,NW,12.7,21.9,0.00,,Clear,310,2012-11-02 14:30:00
10:50 AM,39.2,30.2,70,29.93,10.0,NW,13.8,21.9,0.00,,Clear,310,2012-11-02 14:50:00
11:10 AM,41.0,30.2,65,29.93,10.0,WNW,12.7,18.4,0.00,,Clear,300,2012-11-02 15:10:00
11:30 AM,41.0,30.2,65,29.94,10.0,NNW,13.8,19.6,0.00,,Mostly Cloudy,330,2012-11-02 15:30:00
11:50 AM,42.8,30.2,61,29.95,10.0,NW,16.1,21.9,0.00,,Overcast,310,2012-11-02 15:50:00
12:10 PM,41.0,28.4,61,29.95,10.0,NW,11.5,17.3,0.00,,Overcast,310,2012-11-02 16:10:00
12:30 PM,41.0,30.2,65,29.95,10.0,NW,12.7,-,0.00,,Overcast,310,2012-11-02 16:30:00
12:50 PM,41.0,30.2,65,29.95,10.0,WNW,11.5,-,0.00,,Overcast,300,2012-11-02 16:50:00
1:10 PM,41.0,30.2,65,29.96,10.0,NW,10.4,-,0.00,,Overcast,310,2012-11-02 17:10:00
1:30 PM,42.8,30.2,61,29.95,10.0,WNW,9.2,21.9,0.00,,Overcast,290,2012-11-02 17:30:00
1:50 PM,42.8,32.0,66,29.95,10.0,West,12.7,18.4,0.00,,Overcast,280,2012-11-02 17:50:00
2:10 PM,42.8,30.2,61,29.96,10.0,NW,12.7,19.6,0.00,,Overcast,320,2012-11-02 18:10:00
2:30 PM,42.8,32.0,66,29.96,10.0,NW,13.8,21.9,0.00,,Overcast,320,2012-11-02 18:30:00
2:50 PM,42.8,32.0,66,29.96,10.0,WNW,9.2,18.4,0.00,,Mostly Cloudy,300,2012-11-02 18:50:00
3:10 PM,42.8,32.0,66,29.96,10.0,WNW,13.8,19.6,0.00,,Mostly Cloudy,300,2012-11-02 19:10:00
3:30 PM,42.8,32.0,66,29.96,10.0,NW,12.7,21.9,0.00,,Mostly Cloudy,310,2012-11-02 19:30:00
3:50 PM,42.8,32.0,66,29.97,10.0,NW,11.5,18.4,0.00,,Mostly Cloudy,320,2012-11-02 19:50:00
4:10 PM,42.8,32.0,66,29.98,10.0,NW,10.4,19.6,0.00,,Overcast,310,2012-11-02 20:10:00
4:30 PM,42.8,32.0,66,29.98,10.0,NW,12.7,18.4,0.00,,Mostly Cloudy,320,2012-11-02 20:30:00
4:50 PM,42.8,32.0,66,29.98,10.0,NNW,10.4,17.3,0.00,,Overcast,330,2012-11-02 20:50:00
5:10 PM,42.8,32.0,66,29.98,10.0,NW,10.4,-,0.00,,Overcast,320,2012-11-02 21:10:00
5:30 PM,42.8,32.0,66,29.99,10.0,NW,10.4,17.3,0.00,,Overcast,320,2012-11-02 21:30:00
5:50 PM,42.8,32.0,66,29.99,10.0,NW,9.2,-,0.00,,Overcast,320,2012-11-02 21:50:00
6:10 PM,41.0,32.0,70,29.99,10.0,NNW,8.1,-,0.00,,Overcast,330,2012-11-02 22:10:00
6:30 PM,41.0,32.0,70,30.00,10.0,NW,4.6,-,0.00,,Overcast,320,2012-11-02 22:30:00
6:50 PM,41.0,32.0,70,30.00,10.0,NW,3.5,-,0.00,,Overcast,320,2012-11-02 22:50:00
7:10 PM,39.2,32.0,75,30.01,10.0,NNW,3.5,-,0.00,,Overcast,330,2012-11-02 23:10:00
7:30 PM,39.2,32.0,75,30.02,10.0,North,3.5,-,0.00,,Overcast,350,2012-11-02 23:30:00
7:50 PM,39.2,32.0,75,30.02,10.0,North,3.5,-,0.00,,Overcast,10,2012-11-02 23:50:00
8:10 PM,39.2,32.0,75,30.02,10.0,North,3.5,-,0.00,,Overcast,10,2012-11-03 00:10:00
8:30 PM,39.2,32.0,75,30.02,10.0,Calm,Calm,-,0.00,,Overcast,0,2012-11-03 00:30:00
8:50 PM,39.2,33.8,81,30.02,10.0,Calm,Calm,-,0.00,,Overcast,0,2012-11-03 00:50:00
9:10 PM,39.2,32.0,75,30.02,10.0,North,3.5,-,0.00,,Overcast,10,2012-11-03 01:10:00
9:30 PM,39.2,32.0,75,30.03,10.0,Calm,Calm,-,0.00,,Overcast,0,2012-11-03 01:30:00
9:50 PM,39.2,32.0,75,30.03,10.0,NNE,3.5,-,0.00,,Overcast,20,2012-11-03 01:50:00
10:10 PM,39.2,32.0,75,30.04,10.0,Calm,Calm,-,0.00,,Overcast,0,2012-11-03 02:10:00
10:30 PM,39.2,32.0,75,30.04,10.0,Calm,Calm,-,0.00,,Overcast,0,2012-11-03 02:30:00
10:50 PM,37.4,32.0,81,30.04,10.0,Calm,Calm,-,0.00,,Overcast,0,2012-11-03 02:50:00
11:30 PM,37.4,32.0,81,30.05,10.0,Calm,Calm,-,0.00,,Overcast,0,2012-11-03 03:30:00
11:50 PM,37.4,32.0,81,30.05,10.0,Calm,Calm,-,0.00,,Overcast,0,2012-11-03 03:50:00